Weather History for Paris / Charles De Gaulle, France

Change the Weather History Date:

Friday, December 9, 2011

  Actual Average Record
Temperature  
Mean Temperature 48 °F -  
Max Temperature 53 °F 43 °F 53 °F (2000)
Min Temperature 42 °F 34 °F 28 °F (2001)
Degree Days  
Heating Degree Days 18    
Moisture  
Dew Point 44 °F    
Average Humidity 88    
Maximum Humidity 100    
Minimum Humidity 77    
Precipitation  
Precipitation 0.00 in - - ()
Sea Level Pressure  
Sea Level Pressure 29.93 in    
Wind  
Wind Speed 13 mph ()    
Max Wind Speed 23 mph    
Max Gust Speed 34 mph    
Visibility 5.7 miles    
Events Rain    
Averages and records for this station are not official NWS values.
T = Trace of Precipitation, MM = Missing Value Source: Averaged Metar Reports

Daily Weather History Graph

Daily Weather History Graph

Search for Another Location

Airport:

Trip Planner

Search our weather history database for the weather conditions in past years. The results will help you decide how hot, cold, wet, or windy it might be!

Date:

Astronomy

Dec. 09, 2011 Rise Set
Actual Time 8:31 AM CET 4:52 PM CET
Civil Twilight 7:54 AM CET 5:29 PM CET
Nautical Twilight 7:14 AM CET 6:09 PM CET
Astronomical Twilight 6:35 AM CET 6:48 PM CET
Moon 4:03 PM CET (12/9) 7:25 AM CET (12/9)
Length of Visible Light 9h 35m
Length of Day
8h 21m
Waxing Gibbous, 99% of the Moon is Illuminated
Dec 9
Waxing Gibbous
Dec 10
Full
Dec 18
Last Quarter
Dec 24
New
Jan 1
First Quarter

Hourly Weather History & Observations

Time (CET) Temp. Windchill Dew Point Humidity Pressure Visibility Wind Dir Wind Speed Gust Speed Precip Events Conditions
12:00 AM 51.8 °F - 46.4 °F 82% 29.92 in 6.2 mi SW 19.6 mph - N/A   Mostly Cloudy
12:30 AM 51.8 °F - 46.4 °F 82% 29.89 in 6.2 mi SSW 20.7 mph - N/A   Mostly Cloudy
1:00 AM 51.8 °F - 46.4 °F 82% 29.89 in 6.2 mi SSW 21.9 mph - N/A   Mostly Cloudy
1:30 AM 51.8 °F - 46.4 °F 82% 29.89 in 6.2 mi SW 20.7 mph - N/A   Mostly Cloudy
2:00 AM 51.8 °F - 46.4 °F 82% 29.89 in 6.2 mi SW 23.0 mph - N/A   Mostly Cloudy
2:30 AM 51.8 °F - 46.4 °F 82% 29.86 in 6.2 mi SW 19.6 mph - N/A   Mostly Cloudy
3:00 AM 51.8 °F - 46.4 °F 82% 29.86 in 6.2 mi SW 21.9 mph - N/A   Mostly Cloudy
3:30 AM 53.6 °F - 46.4 °F 77% 29.86 in 6.2 mi SW 19.6 mph - N/A   Mostly Cloudy
4:00 AM 53.6 °F - 46.4 °F 77% 29.86 in 6.2 mi SW 21.9 mph - N/A   Mostly Cloudy
4:30 AM 53.6 °F - 46.4 °F 77% 29.86 in 6.2 mi SW 20.7 mph - N/A   Mostly Cloudy
5:00 AM 53.6 °F - 46.4 °F 77% 29.86 in 6.2 mi WSW 18.4 mph - N/A   Mostly Cloudy
5:30 AM 48.2 °F - 44.6 °F 87% 29.89 in 2.5 mi WNW 21.9 mph 34.5 mph N/A Rain Light Rain
6:00 AM 46.4 °F 39.8 °F 44.6 °F 93% 29.89 in 6.2 mi WNW 16.1 mph - N/A Rain Light Rain
6:30 AM 46.4 °F 42.4 °F 44.6 °F 93% 29.92 in 2.5 mi WNW 8.1 mph - N/A Rain Light Rain
7:00 AM 46.4 °F 42.4 °F 44.6 °F 93% 29.92 in 3.7 mi West 8.1 mph - N/A Rain Light Rain
7:30 AM 46.4 °F 42.4 °F 44.6 °F 93% 29.92 in 3.7 mi WSW 8.1 mph - N/A Rain Light Rain
8:00 AM 46.4 °F 42.9 °F 44.6 °F 93% 29.92 in 4.3 mi WSW 6.9 mph - N/A Rain Light Rain
8:19 AM 46.4 °F 45.2 °F 46.4 °F 100% 29.92 in 4.3 mi WSW 3.5 mph - N/A Rain Light Rain
8:30 AM 46.4 °F 43.5 °F 46.4 °F 100% 29.92 in 5.6 mi WSW 5.8 mph - N/A Rain Light Rain
9:00 AM 46.4 °F 42.4 °F 44.6 °F 93% 29.92 in 2.5 mi West 8.1 mph - N/A Rain Light Rain
9:30 AM 46.4 °F 42.4 °F 44.6 °F 93% 29.95 in 6.2 mi NW 8.1 mph - N/A   Mostly Cloudy
10:00 AM 46.4 °F 42.9 °F 44.6 °F 93% 29.95 in 6.2 mi West 6.9 mph - N/A   Mostly Cloudy
10:30 AM 46.4 °F 43.5 °F 44.6 °F 93% 29.95 in 6.2 mi West 5.8 mph - N/A Rain Light Rain
11:00 AM 46.4 °F 42.9 °F 44.6 °F 93% 29.95 in 6.2 mi WSW 6.9 mph - N/A Rain Light Rain
11:30 AM 46.4 °F 41.9 °F 44.6 °F 93% 29.98 in 6.2 mi WSW 9.2 mph 21.9 mph N/A Rain Light Rain
12:00 PM 46.4 °F 41.5 °F 44.6 °F 93% 29.98 in 6.2 mi WSW 10.4 mph - N/A Rain Light Rain
12:30 PM 46.4 °F 42.9 °F 44.6 °F 93% 29.95 in 6.2 mi WSW 6.9 mph - N/A Rain Light Rain
1:00 PM 46.4 °F 41.9 °F 44.6 °F 93% 29.95 in 6.2 mi WSW 9.2 mph - N/A   Mostly Cloudy
1:30 PM 46.4 °F 42.4 °F 44.6 °F 93% 29.95 in 6.2 mi WSW 8.1 mph - N/A   Mostly Cloudy
2:00 PM 46.4 °F 41.9 °F 44.6 °F 93% 29.95 in 6.2 mi WSW 9.2 mph - N/A   Mostly Cloudy
2:30 PM 48.2 °F - 42.8 °F 82% 29.95 in 6.2 mi WSW 8.1 mph - N/A   Mostly Cloudy
3:00 PM 48.2 °F - 42.8 °F 82% 29.95 in 6.2 mi WSW 6.9 mph - N/A   Mostly Cloudy
3:30 PM 48.2 °F - 42.8 °F 82% 29.95 in 6.2 mi WSW 8.1 mph - N/A   Mostly Cloudy
4:00 PM 46.4 °F 43.5 °F 42.8 °F 87% 29.95 in 6.2 mi WSW 5.8 mph - N/A   Mostly Cloudy
4:30 PM 46.4 °F 42.9 °F 42.8 °F 87% 29.95 in 6.2 mi WSW 6.9 mph - N/A   Mostly Cloudy
5:00 PM 46.4 °F 42.9 °F 42.8 °F 87% 29.95 in 6.2 mi SW 6.9 mph - N/A   Mostly Cloudy
5:30 PM 46.4 °F 43.5 °F 42.8 °F 87% 29.95 in 6.2 mi SW 5.8 mph - N/A   Mostly Cloudy
6:00 PM 44.6 °F 40.2 °F 41.0 °F 87% 29.95 in 6.2 mi SW 8.1 mph - N/A   Mostly Cloudy
6:30 PM 44.6 °F 40.7 °F 41.0 °F 87% 29.95 in - SW 6.9 mph - N/A   Clear
7:00 PM 44.6 °F 40.7 °F 41.0 °F 87% 29.95 in - WSW 6.9 mph - N/A   Clear
7:30 PM 44.6 °F 39.2 °F 41.0 °F 87% 29.95 in - SW 10.4 mph 26.5 mph N/A   Clear
8:00 PM 44.6 °F 41.4 °F 41.0 °F 87% 29.95 in - West 5.8 mph - N/A   Clear
8:30 PM 42.8 °F 38.0 °F 41.0 °F 93% 29.95 in - WSW 8.1 mph - N/A   Clear
9:00 PM 42.8 °F 39.3 °F 41.0 °F 93% 29.95 in - WSW 5.8 mph - N/A   Clear
9:30 PM 42.8 °F 39.3 °F 41.0 °F 93% 29.98 in - West 5.8 mph - N/A   Clear
10:00 PM 42.8 °F 39.3 °F 39.2 °F 87% 29.98 in - WSW 5.8 mph - N/A   Clear
10:30 PM 42.8 °F 38.6 °F 39.2 °F 87% 29.98 in - WSW 6.9 mph - N/A   Clear
11:00 PM 42.8 °F 37.5 °F 39.2 °F 87% 29.98 in - WSW 9.2 mph 21.9 mph N/A   Clear
11:30 PM 42.8 °F 38.6 °F 41.0 °F 93% 29.98 in - WSW 6.9 mph - N/A   Clear